RH
70 72 65 46 41 58 71 80 94 99 98 101 96 98 93 84 89 91 93 91 89 82 74 72 65 66 72 74 77 87 89 83 88 87 86 81 80 84 78 75 74 72 72 77 77 77 77 69 62 59 54 50 50 46 40 38 42 45 49 50 51 59 65 68 69 69 71 71 72 74 76 74 73 73 73 74 73 73 72 71 68 66 69 74 75 77 78 73 70 71 76 78 79 78 79 80 80
72 74 64 48 47 69 83 84 97 101 98 100 96 98 96 88 90 91 93 90 86 77 73 70 65 70 70 68 70 79 88 93 90 83 87 83 83 86 78 75 72 70 73 76 76 77 75 65 62 59 55 53 48 41 39 43 49 55 59 60 63 70 71 70 71 71 72 70 71 74 74 74 74 75 74 73 74 75 75 73 70 68 71 74 76 79 78 75 72 71 75 79 80 80 82 81 80
72 72 62 58 65 85 97 93 99 101 98 100 98 97 95 94 94 91 89 84 80 73 73 71 68 74 72 75 79 80 92 97 86 84 95 85 81 87 80 76 71 70 72 76 77 73 70 64 59 55 53 49 41 39 42 45 49 54 57 59 66 73 73 73 75 73 72 72 74 75 74 75 75 75 74 75 76 76 75 73 70 69 70 73 76 79 78 75 72 70 73 78 80 81 82 80 79
70 72 71 79 88 96 101 99 99 99 100 100 97 95 92 91 92 90 84 81 78 73 73 71 75 78 75 86 88 85 97 100 89 89 98 83 76 84 83 79 72 71 71 74 76 70 68 64 57 53 50 43 39 42 45 47 51 57 58 59 64 71 73 73 73 71 72 74 76 76 76 76 75 76 76 77 76 75 76 73 71 68 69 75 76 77 78 77 73 68 69 76 81 83 82 79 79
76 84 88 94 99 99 98 99 99 98 99 97 95 93 89 84 86 85 79 79 76 73 73 72 81 81 76 87 89 88 96 98 96 94 92 80 74 81 84 80 74 71 72 74 73 68 66 64 59 54 48 46 49 51 52 54 57 60 62 65 69 70 69 69 69 68 71 74 76 76 76 76 76 76 77 77 76 76 76 75 73 70 71 75 74 75 77 79 76 68 67 75 82 84 83 81 80
87 95 98 99 99 98 97 99 99 99 92 87 95 95 87 82 84 82 76 76 75 73 71 72 79 80 85 93 91 91 92 89 97 96 86 79 75 79 83 81 75 71 71 73 72 66 63 63 62 54 51 57 59 58 58 60 61 64 68 71 74 73 71 70 68 69 72 74 76 77 76 76 78 77 77 77 76 76 76 75 74 72 73 74 74 75 76 78 78 70 65 72 81 83 81 81 81
92 98 100 100 99 97 99 100 98 100 89 80 94 93 87 90 84 79 79 76 75 73 69 72 72 78 94 96 93 96 93 85 89 88 80 77 76 77 81 81 74 70 71 70 70 64 61 64 60 54 59 63 61 60 61 63 66 70 72 73 74 75 74 73 72 74 77 78 78 78 77 76 77 76 77 77 76 76 75 74 73 74 74 74 76 76 76 77 77 73 66 69 78 80 78 78 79
96 99 99 99 98 98 98 99 96 97 89 80 91 91 86 90 80 76 83 75 74 75 72 74 68 79 97 93 95 101 95 86 83 80 77 77 76 77 79 78 72 70 70 66 67 63 63 65 55 55 64 64 61 61 64 68 71 72 73 73 74 74 74 74 75 77 79 82 80 77 78 78 77 76 76 76 74 75 74 73 74 75 73 73 75 77 77 76 76 75 72 70 76 81 78 78 79
100 99 97 98 98 98 98 99 96 92 88 80 85 90 85 82 76 75 80 73 71 74 74 73 67 82 98 95 99 101 95 86 82 80 78 78 78 79 79 74 72 71 64 60 67 66 67 64 54 59 65 62 62 64 68 72 72 72 72 72 72 73 73 73 74 76 78 82 81 78 78 78 78 77 75 74 74 75 73 73 75 74 72 72 74 77 77 75 75 76 75 74 77 81 78 78 79
100 99 96 98 98 99 99 99 97 91 87 82 83 87 85 80 75 75 77 74 70 73 76 70 70 87 96 97 99 99 95 85 82 83 80 79 80 80 77 74 73 67 57 59 68 69 67 61 56 63 66 63 64 68 72 72 70 70 69 68 69 69 71 72 73 76 79 80 79 78 76 75 76 75 74 73 74 75 73 73 73 71 71 72 74 77 75 72 71 71 72 74 78 79 77 77 77
99 99 96 98 99 100 99 95 91 88 86 86 89 87 83 77 74 77 76 74 71 77 77 70 81 93 93 96 100 98 92 84 80 79 79 80 80 79 77 77 72 60 56 64 70 70 66 61 62 66 67 65 65 70 72 69 67 66 65 65 66 67 69 71 72 75 77 76 76 77 76 75 74 72 71 72 74 73 73 72 70 70 72 73 75 75 72 68 67 66 67 72 77 77 75 76 75
100 98 96 99 100 100 97 94 86 84 86 86 91 90 81 74 76 80 76 74 76 79 75 71 83 89 91 97 99 98 91 86 80 75 77 78 78 77 76 77 72 63 64 70 71 69 60 60 68 67 68 68 67 70 69 67 66 65 66 67 69 69 68 69 71 75 75 74 74 75 75 74 72 71 70 70 71 69 67 67 69 73 72 72 74 72 68 67 67 66 66 69 73 74 74 74 75
99 95 97 98 98 98 95 94 86 82 86 82 85 88 80 74 77 78 74 76 77 79 75 69 74 80 92 98 98 99 93 87 79 75 77 77 77 76 77 78 74 72 73 71 69 63 51 58 69 68 69 69 69 70 68 67 66 67 69 70 71 70 68 69 71 73 74 73 73 73 73 73 72 73 71 68 67 65 65 67 70 72 71 71 72 71 68 66 66 65 65 66 70 73 74 73 74
96 90 94 97 95 97 92 90 84 79 83 78 79 84 79 75 75 72 72 77 77 75 74 69 69 78 94 100 99 100 95 88 80 77 79 78 76 77 80 79 74 74 74 72 68 56 45 57 68 68 69 68 70 71 70 70 68 70 71 71 71 69 67 67 69 70 71 72 72 71 72 73 74 73 69 67 66 66 68 72 70 68 69 69 69 69 69 67 67 66 64 64 67 71 74 73 73
95 87 91 97 95 95 87 84 82 79 79 74 80 82 77 77 74 71 71 76 78 71 72 74 69 74 90 97 97 97 95 88 80 79 81 79 77 79 81 78 75 75 75 73 68 52 44 58 68 68 66 66 70 70 71 72 70 71 71 71 71 69 66 64 66 66 67 70 71 70 71 72 72 70 68 68 69 69 70 72 71 70 69 68 67 66 67 68 68 68 66 67 69 70 72 72 72
94 91 93 96 96 93 84 79 74 74 74 73 79 78 78 81 72 71 73 71 77 73 70 75 69 68 79 88 92 91 91 86 81 81 82 82 80 81 80 77 75 74 75 74 70 51 43 58 65 65 63 64 70 70 71 72 72 73 72 73 72 71 67 65 65 65 67 68 69 69 68 68 68 68 69 70 71 71 70 70 72 75 76 74 73 70 68 68 68 68 70 73 73 71 71 72 73
94 96 97 95 95 92 84 76 65 65 73 76 77 74 79 87 75 71 73 70 76 75 70 72 71 68 72 81 86 86 86 84 84 85 85 86 86 84 81 79 76 76 77 78 73 51 43 56 61 61 59 63 70 69 70 72 75 75 72 72 73 72 69 68 68 68 71 69 68 68 65 63 63 65 67 69 69 70 70 71 74 77 78 77 76 76 74 71 71 70 72 74 75 73 73 73 76
94 96 96 95 94 87 75 66 57 58 70 78 78 73 76 86 81 72 74 75 75 75 73 73 74 72 72 77 80 82 84 84 85 85 87 89 90 88 85 82 76 78 82 82 75 50 42 55 58 58 55 61 69 67 70 73 76 74 71 73 72 71 69 70 72 73 73 70 68 64 59 58 57 59 61 62 61 64 69 72 75 77 78 77 76 77 75 74 76 76 75 75 74 75 75 75 79
88 87 94 96 88 76 61 55 51 49 61 74 76 71 69 76 76 71 76 81 75 75 79 77 80 82 79 79 79 81 82 83 84 82 85 87 89 89 87 85 78 79 81 79 72 49 41 53 56 54 53 58 62 63 68 72 74 72 70 73 72 72 72 72 74 75 73 68 63 55 53 52 51 52 53 54 54 60 68 72 73 73 76 79 79 77 75 75 79 82 81 76 72 73 74 76 78
82 83 96 91 76 70 58 53 51 45 57 72 74 69 67 70 70 69 76 80 75 76 82 82 87 90 86 85 83 83 83 83 82 79 81 83 85 85 82 82 80 78 76 73 65 46 41 50 51 50 50 50 52 55 63 69 69 66 68 70 69 72 74 73 71 71 67 60 54 49 47 46 46 48 48 49 49 53 60 67 70 71 71 75 79 79 76 75 77 79 79 73 68 69 72 73 74
79 84 91 78 66 69 61 54 50 46 55 67 70 68 68 69 68 68 74 82 81 74 75 76 81 86 86 87 84 82 83 82 81 77 78 80 82 81 77 77 77 75 72 69 59 42 39 44 44 46 46 43 43 46 52 58 55 55 60 61 63 65 67 67 64 63 60 54 49 47 46 45 45 46 46 47 47 48 49 55 62 67 69 71 77 79 79 78 77 77 74 69 66 68 70 71 72
73 78 78 70 65 66 59 49 45 45 54 66 69 67 67 69 69 68 70 79 79 71 71 70 72 77 77 80 82 81 82 83 81 76 75 78 78 77 74 72 71 70 69 64 51 37 36 40 39 39 39 38 39 40 42 45 44 45 48 51 54 56 60 62 62 62 59 55 51 48 46 44 44 45 47 47 48 49 48 48 53 60 65 69 73 79 84 85 83 80 75 70 67 67 68 69 70
68 67 62 65 67 66 61 51 46 45 52 65 66 63 64 69 71 68 66 68 67 65 70 71 70 73 70 73 80 81 80 81 79 73 71 72 72 70 68 66 65 65 63 57 44 34 34 36 36 35 35 36 37 38 40 41 41 42 43 45 48 52 58 61 62 63 61 59 56 54 51 49 50 50 49 47 47 49 50 50 51 55 61 68 70 75 82 86 87 84 80 75 70 68 68 68 69
61 61 52 53 56 57 56 50 46 44 47 55 58 60 64 68 69 68 66 63 60 61 67 70 71 72 72 74 80 80 78 79 77 72 68 67 64 62 61 61 62 60 56 50 40 33 32 33 33 32 33 34 35 36 38 40 42 43 43 43 45 48 56 60 61 63 62 61 60 60 59 58 58 57 54 53 53 51 49 50 51 52 60 70 73 74 79 83 86 85 84 81 75 71 70 69 70
51 55 50 46 45 45 44 42 41 39 41 48 54 60 62 62 63 66 66 62 59 59 65 70 71 74 77 78 79 81 82 83 82 78 74 70 67 65 62 60 61 55 47 43 37 31 31 32 32 31 32 33 34 34 35 38 40 43 45 44 43 44 51 61 64 64 64 63 62 60 60 61 62 62 63 65 65 58 52 53 55 57 65 76 77 76 79 81 84 84 85 85 81 78 73 71 70
45 48 47 43 42 40 39 39 37 37 40 46 53 56 58 58 58 62 64 61 61 60 64 70 72 77 82 82 80 79 82 84 83 81 79 76 71 69 63 58 57 49 41 39 34 30 30 30 32 32 32 32 33 33 33 36 37 39 44 46 46 41 44 56 63 66 67 65 63 60 61 64 65 65 68 72 72 67 63 63 65 69 74 79 78 77 79 80 82 82 83 84 84 83 78 74 72
40 41 42 40 40 38 37 38 36 36 39 44 50 51 53 55 57 60 61 60 61 62 68 72 74 78 82 84 82 80 81 81 81 81 84 82 74 68 63 57 54 46 39 37 31 29 30 29 31 32 32 33 32 32 31 33 35 35 38 44 47 46 45 48 54 62 68 66 64 64 65 68 68 68 71 74 74 73 71 70 73 76 78 80 79 77 79 80 80 80 80 82 84 85 82 78 75
36 36 37 36 36 35 35 36 36 37 40 41 45 45 46 52 56 55 55 59 60 63 72 75 75 79 82 85 85 84 83 83 84 84 83 78 69 65 61 54 52 47 37 32 29 29 29 28 29 31 32 33 32 31 30 31 33 34 35 36 39 48 53 51 51 55 62 68 66 65 69 70 70 71 75 75 74 75 74 74 76 78 79 79 77 77 78 77 76 78 79 82 83 82 82 80 77
33 34 37 36 34 35 34 34 34 36 40 38 41 47 48 52 54 48 50 58 59 64 74 79 78 79 84 86 85 85 85 86 89 86 76 66 60 58 54 49 48 46 37 30 29 29 29 28 28 29 30 32 32 31 30 30 32 34 35 35 35 42 51 56 58 56 59 70 70 66 70 72 71 73 77 76 75 76 75 74 76 76 79 79 76 75 73 72 72 72 75 80 81 80 80 80 79
33 32 36 38 39 40 34 31 32 35 38 34 41 56 57 51 47 44 51 58 63 71 78 81 82 82 85 86 86 86 85 87 88 83 74 65 59 55 51 49 47 47 41 33 29 28 28 28 28 28 29 30 30 31 30 29 31 33 34 36 38 40 45 51 59 61 62 70 74 70 69 71 71 74 77 78 78 76 73 75 78 76 77 78 75 73 70 71 73 72 74 79 79 79 80 80 80
35 36 37 40 48 49 35 30 34 36 37 34 41 58 58 48 44 45 52 58 64 75 80 82 83 84 85 86 86 86 85 85 84 81 76 68 62 57 54 51 49 49 45 35 29 28 28 28 28 28 28 28 29 30 30 29 30 32 32 34 38 42 44 46 54 64 64 69 76 74 71 69 70 74 76 78 80 76 72 76 80 77 76 75 73 73 72 72 75 76 76 79 79 79 80 80 80
36 43 49 46 49 48 34 31 35 36 38 36 42 56 53 43 44 49 54 58 63 73 80 81 83 84 85 85 85 86 86 85 86 85 81 75 68 61 57 53 51 50 46 38 32 29 28 28 28 27 27 27 28 29 29 29 30 31 31 32 35 40 44 46 52 65 67 67 73 74 72 68 68 73 77 78 77 75 73 76 78 75 77 76 70 73 77 73 74 77 78 81 82 81 81 82 81
39 44 51 50 49 48 39 34 32 33 40 41 43 52 53 44 46 53 56 59 63 71 78 80 82 83 84 86 85 86 87 88 90 90 88 84 75 65 61 56 54 52 47 43 38 33 28 27 28 27 27 26 27 28 28 29 30 31 31 31 34 38 43 47 55 67 71 69 71 73 69 66 65 67 73 75 74 74 74 76 76 74 78 80 72 74 79 77 74 75 80 83 81 79 80 80 80
44 42 43 43 44 46 43 34 28 32 41 44 43 46 49 47 49 56 58 60 63 69 76 79 81 82 83 85 86 86 88 89 90 90 90 88 78 67 63 60 58 57 53 47 43 38 31 27 27 27 27 27 27 27 28 29 30 31 31 32 35 38 40 48 59 67 72 73 75 76 71 65 66 67 68 68 69 72 74 75 76 75 77 79 76 75 76 79 77 72 76 82 77 76 78 75 74
43 44 42 39 36 37 38 31 28 36 41 45 47 46 44 44 52 58 57 60 63 66 72 76 79 81 82 83 84 85 87 88 87 87 87 87 81 70 64 64 62 59 56 52 48 44 40 34 29 27 26 27 27 28 29 30 31 32 32 31 36 41 41 47 59 66 69 72 75 80 78 71 73 74 70 65 64 65 66 69 73 74 74 76 78 76 73 75 78 74 73 77 75 73 75 73 72
41 41 40 38 35 33 33 27 27 36 42 45 48 48 44 44 53 58 57 59 61 63 69 73 76 78 80 82 82 82 84 84 83 84 85 84 81 71 65 66 63 59 57 55 53 49 47 44 38 31 27 26 27 29 30 31 32 32 31 30 32 40 43 45 54 61 64 67 72 81 84 80 80 80 75 69 66 62 59 62 68 72 75 76 78 78 76 75 77 80 77 75 73 69 72 73 71
36 34 34 34 34 32 29 25 23 30 41 46 45 45 44 42 51 56 56 58 59 61 66 69 73 75 77 80 80 81 81 80 81 84 85 83 80 71 67 68 65 62 60 58 55 52 49 49 45 38 30 27 27 28 29 30 31 30 29 28 28 36 44 46 48 55 58 59 67 79 83 82 84 83 77 73 70 65 58 57 61 68 74 77 79 82 85 80 78 83 80 74 73 71 70 70 68
33 34 33 33 33 31 28 24 22 27 36 42 43 45 45 41 45 53 56 58 58 59 62 66 69 71 74 76 78 79 80 80 82 84 85 85 82 76 72 72 69 67 65 62 59 56 54 52 50 44 35 29 27 26 27 28 29 28 27 26 25 31 42 47 46 49 53 54 62 73 78 80 81 82 79 75 74 68 58 54 56 62 70 75 79 84 87 81 77 84 84 75 74 75 74 69 66
34 36 34 34 34 30 27 24 21 24 30 36 40 43 44 40 40 50 55 57 56 55 58 61 65 68 70 72 75 77 78 80 81 81 83 85 82 78 76 75 73 70 68 66 64 62 61 58 55 51 43 34 29 28 29 30 29 29 29 27 25 28 39 48 50 51 54 55 56 63 71 75 77 79 79 75 73 68 58 53 54 58 65 69 76 83 86 81 76 82 87 81 75 76 75 69 65
35 36 37 36 32 28 29 28 23 22 25 31 37 40 42 40 39 47 53 54 54 54 55 57 60 64 65 67 70 72 75 77 78 79 81 82 82 80 77 75 74 73 70 68 67 67 67 64 59 55 49 42 38 35 34 34 34 34 35 32 28 28 39 50 55 58 59 57 54 55 61 67 70 75 79 77 72 66 57 52 53 56 60 63 70 80 84 82 77 77 82 83 78 75 74 72 68
36 34 37 35 30 27 29 29 25 23 25 26 30 35 39 41 41 45 49 52 54 53 54 56 57 60 61 63 66 68 70 71 73 76 78 79 80 79 76 73 74 73 70 67 66 66 66 64 61 58 54 51 48 45 42 40 40 41 41 38 33 33 44 55 59 61 60 56 53 51 53 58 63 71 78 79 75 68 59 52 52 55 57 60 63 70 78 80 79 76 77 79 77 73 74 75 72
38 33 32 31 28 26 26 26 24 28 32 29 25 29 39 45 45 43 45 51 56 54 54 57 56 57 59 61 63 65 66 67 68 70 72 75 76 77 77 75 73 71 66 65 64 64 64 63 62 61 60 59 58 55 50 46 44 45 45 42 37 36 44 50 52 55 55 51 49 49 53 55 59 67 75 78 77 72 64 58 55 53 55 58 59 63 71 76 77 76 76 75 74 74 75 76 73
40 34 29 28 26 25 25 24 25 34 40 32 25 30 42 50 48 43 44 50 55 56 56 56 55 57 58 59 60 62 64 65 65 66 68 71 73 75 76 74 72 68 64 64 64 64 63 63 64 64 65 65 65 63 57 51 49 49 49 46 41 37 38 38 39 45 50 49 48 50 53 55 58 64 72 76 77 73 68 64 60 56 54 55 57 59 65 72 74 75 76 73 72 74 76 75 71
38 32 27 27 25 25 26 24 28 35 36 29 27 31 39 45 45 42 44 49 52 56 57 56 55 56 57 57 58 60 61 62 63 64 66 68 70 71 72 71 68 66 65 66 65 63 62 63 64 65 66 67 67 67 64 58 54 53 52 52 50 43 38 36 37 43 50 52 53 53 54 55 57 62 69 73 74 73 70 66 63 58 54 53 55 56 60 68 72 74 75 73 71 71 74 75 71
34 27 26 27 25 25 25 25 29 30 31 31 30 29 35 47 49 42 44 50 52 54 55 55 54 54 55 56 57 57 59 60 60 61 62 63 66 67 68 68 68 68 69 67 65 63 62 64 65 65 66 67 67 69 68 65 60 56 55 58 60 54 45 40 41 45 52 55 56 57 56 56 55 58 66 69 69 70 68 66 63 59 54 52 54 54 58 65 70 73 74 73 72 68 70 73 72
30 25 24 24 23 24 25 27 29 28 33 36 32 28 32 44 47 40 42 50 51 49 50 50 51 53 53 54 56 56 57 58 59 59 59 60 61 64 67 68 69 70 69 68 68 66 65 65 66 66 66 66 67 68 69 67 65 63 62 64 65 61 52 46 44 47 53 57 58 58 58 56 52 53 61 65 65 65 64 63 60 56 54 52 53 53 56 64 68 70 72 73 73 70 69 71 71
26 25 24 24 26 27 28 31 30 32 37 34 29 28 31 36 38 35 38 42 43 44 45 46 47 49 52 52 54 55 56 57 58 58 58 58 59 62 65 68 70 71 70 71 71 69 68 67 67 67 66 66 67 68 68 67 67 67 66 67 67 62 56 52 48 49 53 56 57 56 55 53 49 48 55 62 61 59 59 58 55 53 52 51 51 52 54 61 66 68 71 72 72 70 70 71 72
26 27 27 31 36 33 32 36 34 37 40 33 27 27 30 34 34 33 33 33 36 39 40 43 44 46 49 50 52 53 54 55 56 57 58 58 60 61 63 66 68 71 72 73 72 71 70 68 68 67 67 67 67 67 68 68 69 69 67 67 68 65 62 57 51 49 51 52 53 54 54 52 47 44 49 55 55 55 55 56 52 48 47 47 48 50 51 56 62 66 68 70 70 69 70 72 72
29 32 33 40 46 43 43 45 41 42 42 35 30 28 30 33 28 27 33 34 34 33 34 36 38 42 45 47 49 51 52 54 54 56 57 57 58 59 60 63 65 69 71 72 73 72 71 69 69 68 67 67 67 68 68 68 69 69 68 67 68 69 68 63 57 54 54 52 51 54 53 50 46 41 42 46 48 50 52 52 49 44 41 43 46 49 50 52 57 63 66 67 68 66 67 70 70
31 33 38 45 49 51 54 53 47 45 45 37 29 30 34 32 24 20 25 31 32 31 30 30 32 36 40 43 46 48 50 52 53 54 55 56 56 57 58 60 63 65 68 70 71 71 71 70 69 68 67 66 68 68 68 68 68 68 68 68 68 70 71 68 64 61 59 56 52 52 51 48 45 41 39 41 43 46 48 48 46 44 41 42 44 47 49 49 52 58 63 65 65 64 63 65 67
31 30 33 40 47 54 57 56 50 45 46 39 29 34 36 32 29 23 18 21 25 27 27 27 29 31 34 39 43 46 48 50 52 53 53 54 53 55 57 58 60 63 65 68 70 70 70 70 69 68 67 67 68 68 68 67 66 66 67 69 69 70 71 70 67 64 63 60 54 50 50 49 46 42 40 40 42 44 45 45 45 44 43 42 42 43 46 47 48 52 57 62 62 62 62 62 64
29 27 32 37 41 44 48 53 48 38 39 36 31 39 39 31 30 25 19 18 18 22 26 26 28 29 31 37 40 44 46 47 51 52 52 53 52 54 56 57 59 61 64 66 68 68 68 68 67 66 66 66 67 67 67 66 65 66 66 68 69 70 71 71 68 65 63 61 57 52 50 50 48 46 44 42 42 43 44 46 46 45 44 45 43 41 42 45 47 48 52 57 59 60 61 60 62
31 31 35 33 28 30 39 47 41 31 35 37 31 32 30 24 22 17 16 21 20 21 25 27 29 30 31 35 38 41 43 45 48 50 51 52 52 53 55 55 57 59 62 64 65 66 65 65 65 65 66 67 67 66 66 65 65 66 66 67 68 69 70 69 65 61 60 59 58 55 52 52 51 49 47 44 43 43 44 45 46 47 46 47 45 42 42 45 47 46 47 52 57 59 59 59 60
32 34 31 26 25 27 34 41 38 34 40 43 35 28 23 24 29 23 18 21 21 22 25 27 29 31 33 35 36 38 40 42 44 46 48 50 51 53 53 54 54 56 58 60 63 64 65 65 63 63 65 66 66 65 64 65 65 66 67 67 68 68 67 65 62 60 60 61 59 56 54 51 50 50 49 47 45 44 44 44 44 46 46 46 45 43 43 45 47 46 45 48 52 56 58 57 59
25 29 24 28 37 36 34 40 43 43 44 44 37 31 27 26 29 25 19 19 20 22 26 28 30 32 34 34 35 37 38 40 42 44 47 50 51 52 53 53 54 55 57 59 62 64 65 66 64 61 61 60 61 64 64 66 66 66 66 65 66 68 67 65 63 63 64 64 61 58 55 50 48 49 50 50 48 44 43 42 41 42 43 43 43 42 42 44 45 46 45 45 47 51 53 53 56
23 25 24 28 36 36 36 38 40 44 48 44 32 28 32 30 24 19 16 17 19 21 26 29 29 31 33 33 34 36 38 39 41 42 45 47 49 50 51 52 53 55 57 59 62 64 64 65 65 64 61 60 62 63 64 65 66 67 66 66 67 68 68 66 65 65 65 62 61 60 57 53 51 50 50 51 50 47 44 42 40 40 39 39 39 39 40 41 43 44 44 44 45 46 47 48 50
28 27 29 31 29 29 33 31 30 37 47 46 33 30 37 35 25 16 14 16 16 19 24 27 27 29 29 31 33 34 36 38 38 40 42 44 46 47 49 51 53 55 58 60 61 63 63 64 66 65 63 63 63 63 65 66 67 68 68 67 67 67 68 67 66 66 64 61 62 62 59 58 56 52 50 51 50 48 45 43 42 40 38 37 37 38 39 40 41 42 43 44 45 45 46 46 47
36 30 29 30 28 31 37 38 31 27 38 47 39 34 35 31 23 16 12 14 14 16 20 23 24 26 27 29 31 33 35 35 36 37 39 41 43 46 49 52 54 56 58 59 60 61 62 63 64 66 65 64 62 62 64 65 65 66 66 66 66 67 67 67 66 65 63 62 62 61 61 62 59 53 50 49 48 47 45 44 42 41 39 37 36 36 39 40 41 40 42 44 44 45 46 46 47
Wind_Speed
11 10 10 10 11 11 10 8 1 1 2 2 2 2 2 2 1 2 2 2 2 3 7 14 21 16 6 5 7 8 7 4 3 1 3 13 28 31 30 32 30 30 29 28 27 25 24 23 23 22 21 20 18 17 16 16 15 15 15 14 14 14 13 13 13 13 13 13 13 12 12 12 12 12 12 12 11 11 11 11 11 11 11 10 10 10 10 9 9 10 10 10 10 10 10 10 10
11 11 11 11 12 9 6 7 1 1 1 2 2 2 1 0 1 2 3 2 1 6 13 20 21 11 6 11 12 9 7 3 3 6 13 27 33 30 31 31 30 31 29 28 27 26 25 24 23 21 20 19 17 16 16 16 15 15 15 14 15 15 15 14 13 14 14 14 14 13 13 13 13 12 12 12 11 11 11 11 10 11 10 9 10 10 10 9 10 10 10 10 10 10 10 10 10
11 12 12 12 12 7 4 6 1 1 0 2 3 2 1 1 1 3 4 3 6 13 17 21 16 9 9 10 7 5 3 2 8 17 24 33 35 32 32 31 31 30 29 29 27 27 25 24 23 21 20 18 17 17 16 16 16 16 15 16 16 16 16 15 14 14 14 14 14 14 13 13 13 12 12 12 11 11 11 11 11 10 10 9 9 9 9 9 10 10 10 10 10 9 9 10 10
12 11 11 11 10 6 2 2 1 0 1 2 3 3 1 0 2 4 6 6 13 17 16 16 9 6 7 6 5 5 5 6 15 25 29 34 35 35 33 32 31 30 29 28 26 26 25 24 22 21 19 18 17 17 17 17 16 16 16 16 17 17 16 16 15 15 15 14 14 14 13 13 12 12 12 12 11 11 11 11 11 11 10 10 9 9 9 9 9 10 10 10 10 10 9 10 10
13 10 9 9 5 2 1 0 0 1 3 2 2 3 2 1 3 4 6 8 12 15 15 12 6 6 8 7 4 3 7 12 19 25 33 35 34 35 34 33 32 30 29 27 26 25 24 23 21 20 18 17 17 16 16 17 17 17 16 16 17 17 17 16 16 15 15 14 14 13 13 13 12 12 12 12 12 11 11 11 11 11 11 10 10 9 9 9 9 9 9 10 10 10 9 10 10
13 10 9 7 2 0 1 1 1 3 4 3 2 3 1 2 3 5 8 9 9 13 14 10 9 10 9 7 6 7 10 14 21 25 35 37 35 35 34 33 32 31 29 27 26 25 24 22 20 19 18 17 17 17 17 17 17 17 16 16 16 16 16 16 16 15 15 14 14 13 13 13 12 12 12 12 12 11 11 11 11 11 10 10 10 10 9 9 9 9 9 9 9 9 9 9 9
12 10 8 6 3 0 1 2 3 3 4 3 3 2 1 2 5 7 6 7 7 8 9 11 16 13 6 4 7 9 5 12 27 31 36 38 36 36 34 33 32 31 29 27 25 25 24 21 20 18 18 18 17 18 17 17 17 16 16 16 16 15 15 15 15 15 14 14 14 13 13 12 12 13 12 12 12 11 10 11 11 11 11 10 10 10 10 9 9 8 8 9 9 9 9 9 9
10 7 5 3 1 1 1 3 3 2 3 2 3 1 2 4 7 7 3 4 5 5 10 14 16 9 3 4 6 6 5 17 31 34 37 37 37 36 33 33 32 31 28 28 26 24 23 20 20 19 19 18 18 18 17 17 16 16 15 15 15 15 15 14 14 14 13 14 14 14 13 13 12 12 12 12 12 11 11 11 11 11 11 11 10 10 10 9 8 8 8 8 8 8 8 8 8
10 4 2 0 1 1 2 3 4 3 3 2 2 1 3 7 8 7 3 4 6 8 12 13 10 7 6 8 8 6 10 22 31 35 37 37 37 35 33 33 31 30 29 28 26 24 23 20 20 19 19 19 19 18 17 16 15 15 15 15 14 14 14 14 14 14 13 13 14 13 13 12 12 12 12 12 12 12 11 11 11 11 11 11 10 10 9 8 8 7 7 7 7 8 8 8 8
9 3 0 0 0 2 2 3 3 2 3 1 2 3 5 8 7 6 4 5 10 10 10 10 9 11 11 10 8 8 14 24 33 36 36 36 36 35 33 32 30 30 30 29 26 25 23 20 20 20 19 19 19 17 16 15 15 15 15 14 14 14 14 14 14 14 13 12 12 12 12 12 11 12 12 12 11 11 11 11 11 11 11 11 11 10 8 8 7 7 7 7 7 8 8 8 9
6 3 0 0 1 2 2 3 3 3 2 1 1 5 7 9 8 5 5 8 13 12 11 10 10 16 14 8 7 9 16 26 35 38 37 37 36 35 34 31 29 29 29 28 26 25 23 21 20 20 20 19 18 17 16 15 15 15 15 14 14 14 14 14 14 13 13 12 12 11 11 11 11 12 12 12 12 11 11 11 10 10 10 10 10 9 8 8 8 8 7 7 7 7 8 8 8
2 2 1 1 2 2 3 3 3 3 1 1 1 5 8 11 7 4 6 8 11 11 11 11 13 17 10 5 9 12 18 27 36 39 38 37 36 35 33 31 29 28 28 27 26 25 23 22 21 20 20 19 18 17 16 16 16 16 15 15 14 14 13 14 13 13 12 12 12 11 11 11 11 12 12 12 12 11 11 11 11 10 10 9 10 9 8 8 8 8 8 8 8 7 8 8 8
3 2 2 1 2 2 2 3 3 1 1 2 3 6 10 11 5 5 8 8 11 9 8 12 18 16 7 7 14 16 20 29 36 38 38 37 37 35 33 31 29 27 28 27 26 25 23 22 22 21 20 19 18 17 17 16 16 16 15 15 14 14 13 13 13 12 12 12 12 11 11 11 11 11 12 12 12 12 12 12 11 10 9 9 9 9 8 8 8 8 8 8 8 8 8 8 8
5 2 2 1 1 2 2 2 2 0 2 2 5 9 11 8 4 8 10 9 6 6 8 15 21 14 10 12 15 21 24 32 38 38 39 37 37 35 32 30 29 28 27 27 25 24 24 23 22 21 20 19 18 18 17 16 16 16 15 14 14 14 13 13 13 12 12 12 12 12 11 12 12 12 12 12 13 13 12 11 11 10 9 9 9 8 8 8 8 8 8 8 8 8 8 8 9
6 1 1 1 2 2 2 3 1 2 2 2 8 12 11 5 6 8 11 11 2 8 12 15 19 9 11 14 15 29 31 35 40 39 40 37 37 35 32 30 29 29 27 27 25 24 24 23 23 21 20 19 19 19 17 17 16 15 15 14 14 14 14 13 13 13 12 12 12 12 12 12 12 12 13 13 13 12 12 11 11 10 10 9 9 8 8 7 7 8 8 8 8 8 9 8 9
8 2 1 1 2 2 2 2 2 2 3 3 10 14 9 5 8 7 10 12 8 16 12 14 17 2 13 19 20 35 35 39 41 39 40 37 37 35 32 30 29 29 26 26 24 24 24 24 24 22 21 20 20 19 18 18 16 16 15 15 14 14 14 14 14 13 12 12 12 12 13 13 13 13 13 13 12 12 11 10 10 10 10 9 9 9 8 8 7 7 8 8 8 9 9 9 9
8 4 1 2 2 2 2 3 2 2 2 4 11 15 8 4 7 9 11 11 16 20 8 12 13 4 16 20 24 39 38 41 41 39 39 35 36 35 33 31 29 29 26 25 24 25 25 24 24 22 22 21 20 19 19 18 17 16 15 15 15 14 14 14 14 13 12 12 12 13 14 15 15 14 14 13 12 11 10 9 9 8 8 8 8 8 8 8 8 7 8 8 8 8 9 10 9
6 3 2 3 2 3 3 3 3 3 3 5 11 15 11 6 8 12 11 10 16 15 7 13 8 4 17 19 29 40 38 42 40 39 39 35 36 35 34 32 31 30 27 26 24 26 25 25 24 23 23 22 21 20 19 18 17 16 15 15 16 16 16 15 14 14 13 12 12 13 14 15 15 15 14 13 12 11 10 8 7 7 7 7 7 7 7 8 7 8 8 7 7 7 8 9 9
6 2 1 4 3 3 4 4 2 0 5 8 11 15 12 10 14 15 8 8 14 10 7 13 11 13 18 22 35 40 39 42 40 41 39 37 38 36 36 33 32 31 29 27 25 27 26 26 25 23 23 23 22 21 21 19 17 18 17 16 16 16 16 16 15 14 13 13 13 13 14 15 14 14 13 12 11 11 10 8 6 6 6 6 6 7 6 7 7 7 7 7 8 8 8 9 9
7 4 2 6 5 5 10 11 8 5 7 12 9 12 11 13 19 16 9 8 11 8 10 14 17 23 24 31 39 39 41 41 39 41 39 39 38 38 38 36 35 33 30 28 27 28 27 26 25 24 24 23 23 22 22 20 19 19 18 17 17 16 16 15 15 14 13 13 14 14 13 14 13 12 11 11 10 9 8 8 7 6 6 5 5 5 5 5 6 6 6 7 8 9 9 10 9
6 7 4 4 3 5 11 12 12 8 8 13 11 10 8 15 20 16 14 10 5 11 19 21 24 30 32 38 41 40 42 40 40 40 39 40 38 39 39 37 35 34 32 29 29 30 28 27 25 25 24 23 23 22 22 20 20 19 18 18 17 17 16 16 15 14 14 14 14 13 13 12 11 11 9 9 8 7 6 6 6 6 6 5 5 4 4 4 5 5 5 6 7 8 10 10 9
6 9 9 9 4 3 9 10 10 5 9 12 11 10 9 15 16 18 20 11 8 17 25 26 28 31 34 41 43 43 42 41 41 40 40 40 39 39 39 37 36 34 33 31 31 30 29 27 26 25 24 24 23 22 21 19 20 19 18 18 17 17 17 17 16 15 14 13 13 12 12 11 10 10 9 8 7 6 5 4 5 6 6 6 5 4 3 3 4 4 4 5 5 7 8 8 7
5 7 11 15 12 9 13 11 11 7 7 12 11 12 15 14 10 18 24 15 9 15 23 24 27 29 33 42 44 44 44 43 42 42 42 41 41 41 40 40 37 36 34 32 32 31 30 28 27 26 25 25 23 22 21 19 19 18 18 17 17 17 17 17 16 15 14 13 12 11 10 10 9 8 8 8 7 7 6 5 4 4 5 5 6 5 4 4 4 4 4 4 5 5 6 6 5
8 6 9 13 14 17 20 16 17 15 8 11 14 14 16 15 10 16 24 17 6 9 21 24 25 28 34 41 43 44 44 43 43 42 42 42 42 41 40 40 38 36 34 33 33 32 31 29 28 28 26 26 24 22 21 20 19 18 18 17 17 17 17 17 16 15 14 13 12 11 10 10 9 8 7 7 6 7 6 6 5 4 4 4 5 5 5 4 4 4 4 5 6 6 5 5 3
11 11 10 9 13 17 18 16 18 18 14 11 13 13 17 20 15 15 21 18 10 12 21 24 26 30 36 42 43 43 42 41 41 40 40 40 40 39 39 40 39 37 34 35 35 34 32 30 30 29 28 26 24 23 21 20 19 18 18 17 17 17 16 16 16 15 14 14 13 12 11 10 9 8 7 6 5 6 6 6 5 4 3 3 3 4 4 4 4 4 5 6 7 7 7 5 4
13 17 12 8 12 14 14 15 16 16 14 11 11 9 15 20 13 10 19 20 14 17 23 26 30 33 37 41 43 44 42 41 41 40 40 39 39 39 40 40 40 38 35 35 36 35 33 32 31 30 28 27 25 24 22 20 19 18 17 17 16 16 16 16 15 15 14 14 14 13 12 10 10 8 6 5 5 5 5 5 5 5 3 2 2 3 3 3 4 4 5 6 6 7 7 6 5
11 14 12 14 17 17 17 17 17 16 13 13 13 7 12 18 10 5 15 21 19 22 26 29 33 35 38 40 42 43 43 43 42 41 39 38 39 40 41 41 40 39 36 36 36 36 35 33 32 30 29 27 25 24 22 21 19 18 17 16 16 15 15 15 15 14 14 14 14 13 12 11 10 9 6 4 4 4 4 5 5 5 4 3 3 3 2 3 3 3 4 5 5 6 7 7 6
11 10 9 15 15 16 18 15 17 13 9 15 16 6 7 13 10 7 16 25 25 27 30 33 35 36 38 39 40 41 41 41 40 40 41 41 43 42 42 42 41 40 38 37 37 37 36 35 32 31 29 28 26 24 22 21 19 18 16 16 15 14 15 15 15 14 13 13 13 13 12 11 10 9 7 5 4 3 4 4 4 5 4 4 4 3 3 3 3 3 3 4 4 5 6 8 7
15 10 6 10 7 10 14 12 15 10 7 15 13 3 3 10 12 13 21 28 29 31 33 34 36 36 37 38 39 40 40 40 39 41 43 44 45 45 44 43 42 40 39 37 36 37 37 35 34 32 30 29 27 25 23 21 20 18 16 15 14 14 15 14 15 14 14 13 13 13 11 10 9 8 7 6 5 3 4 5 5 5 4 4 3 3 2 2 3 3 3 3 4 4 5 8 8
13 7 5 7 4 7 10 10 12 10 9 14 13 3 5 9 13 15 24 32 32 30 33 34 34 35 36 37 38 39 40 40 41 42 43 44 44 45 45 44 42 41 39 38 37 38 37 36 35 33 31 30 28 26 24 22 20 19 16 16 14 14 14 13 13 14 14 14 13 13 11 10 9 7 6 5 5 3 4 5 5 5 4 3 2 2 2 2 2 3 3 2 3 4 5 8 8
5 4 4 3 1 5 5 5 9 7 9 17 16 5 6 7 10 18 28 35 34 30 31 33 33 34 36 38 38 39 40 42 43 43 43 43 44 44 44 44 43 41 40 39 38 38 37 37 36 34 33 31 29 27 26 24 21 19 17 16 15 15 14 14 13 13 14 14 14 14 12 11 9 7 6 5 4 3 4 5 5 5 4 3 2 2 2 2 3 3 3 3 3 5 6 7 7
1 4 4 3 4 6 6 4 10 8 6 17 16 4 6 6 8 22 31 36 35 30 30 32 33 34 36 38 39 39 41 41 41 41 42 43 43 44 44 44 44 43 42 40 39 39 38 37 37 36 34 32 31 29 27 25 22 20 18 17 16 15 14 14 14 13 14 14 15 14 13 11 9 7 6 5 4 4 4 4 4 4 3 3 3 3 3 3 3 3 4 4 4 5 5 6 6
2 3 4 3 5 6 6 3 9 12 5 11 13 4 3 4 10 24 31 35 34 29 29 32 33 35 36 38 39 39 38 39 40 41 42 43 44 44 44 44 44 43 42 41 40 40 39 39 38 37 35 33 32 30 28 26 24 22 20 18 17 16 15 15 15 15 15 15 14 14 13 11 9 7 6 5 4 4 4 4 4 4 3 4 4 4 4 4 4 4 4 4 4 5 5 6 7
3 2 4 3 5 6 4 4 7 10 6 7 12 8 5 4 11 23 30 34 32 27 29 32 33 34 36 37 38 38 39 40 43 44 43 43 44 44 44 44 43 43 43 42 41 41 40 39 39 38 36 35 33 31 29 27 26 24 22 20 19 18 17 16 16 17 17 15 14 13 12 11 9 8 8 7 6 5 4 4 5 5 4 4 5 5 4 4 5 4 4 4 4 4 4 4 6
4 4 3 2 4 5 5 3 4 6 7 8 10 11 10 3 8 20 29 33 30 27 30 32 33 34 35 36 37 38 40 42 46 46 45 44 44 44 44 43 42 43 43 42 42 41 40 40 39 39 37 36 34 32 31 29 28 26 24 22 21 20 19 17 18 19 18 17 15 13 12 11 10 8 8 8 7 7 6 5 5 5 5 5 5 5 5 4 4 4 4 5 5 5 4 3 5
6 5 4 4 4 5 5 4 4 5 5 7 9 11 12 6 8 15 24 31 30 26 27 28 30 32 33 35 37 39 41 45 46 45 44 44 44 44 43 42 42 42 42 42 42 43 42 41 40 40 39 37 36 34 33 32 30 29 27 25 24 23 21 20 20 21 20 18 16 14 12 12 10 9 9 8 7 7 7 7 6 6 6 6 6 5 5 4 4 4 4 5 6 6 5 4 4
4 4 4 5 5 5 5 4 3 5 4 6 9 11 13 10 9 13 22 27 23 20 22 24 28 30 33 35 37 40 43 45 43 42 43 43 43 44 43 42 42 42 43 42 43 43 43 42 41 41 40 39 38 37 36 34 33 32 30 28 27 25 23 22 21 22 22 19 17 15 14 13 12 11 9 8 7 7 8 9 8 8 7 7 6 5 5 5 5 5 5 5 7 7 6 6 5
3 2 3 4 5 5 5 4 2 3 3 5 7 9 13 11 9 12 19 19 17 21 24 25 30 32 33 36 38 41 41 39 37 39 42 42 43 44 43 43 43 43 43 43 43 43 43 43 42 42 41 40 39 38 37 36 35 33 31 30 28 26 24 22 22 22 23 20 18 16 15 14 13 12 10 9 8 8 9 10 10 9 8 7 6 6 6 7 6 6 6 6 6 8 8 8 7
7 4 3 3 4 3 6 5 2 2 3 4 5 8 11 10 8 11 17 18 21 31 33 33 35 34 33 37 39 39 37 36 38 41 43 44 44 44 44 45 44 44 43 42 42 42 42 43 42 42 42 41 40 39 38 37 35 33 31 29 28 27 25 23 22 22 22 21 19 17 16 15 14 13 11 10 9 9 10 10 10 9 8 8 7 6 7 7 7 7 7 6 7 8 9 10 8
7 6 5 5 4 2 4 4 1 1 4 4 4 5 7 7 5 8 18 25 27 33 36 36 38 39 41 43 43 41 40 39 40 42 44 45 45 45 46 47 46 44 43 43 42 42 42 42 42 42 42 42 41 40 39 37 35 33 31 30 29 28 27 25 24 23 22 22 20 19 17 17 15 14 11 10 9 9 10 11 11 10 9 8 7 6 7 7 6 6 7 7 7 8 9 10 9
8 8 7 6 5 4 4 3 3 3 3 3 3 2 5 4 6 6 14 21 22 26 29 29 32 38 41 40 39 40 43 44 43 43 45 46 48 49 49 48 47 46 46 45 43 42 42 41 40 40 40 41 41 40 40 38 37 35 33 32 31 30 29 28 26 25 24 23 22 20 19 18 16 15 12 10 9 9 10 11 11 10 10 9 8 7 7 7 7 6 6 7 8 8 9 10 10
6 10 10 8 7 5 3 4 4 4 5 3 3 3 6 4 7 9 9 11 14 17 20 23 30 34 34 32 33 38 42 44 45 46 47 48 49 49 48 48 48 49 48 46 44 42 41 40 39 39 39 39 38 39 39 39 38 37 36 35 34 33 32 31 29 27 25 24 23 21 20 19 18 17 14 11 9 10 10 10 10 10 10 9 9 8 8 8 8 7 6 7 7 7 9 11 11
6 9 9 8 7 5 3 1 1 2 4 4 1 4 5 5 5 9 9 11 15 15 15 22 29 30 31 34 37 40 41 42 44 44 45 46 47 48 49 50 51 51 50 47 45 43 42 41 40 39 38 37 37 36 37 38 38 37 36 37 37 36 35 33 30 27 25 24 23 22 21 20 20 19 16 13 11 10 10 10 10 10 10 10 10 10 9 9 9 7 7 7 7 8 9 11 12
6 6 9 8 8 7 5 3 4 3 4 5 2 4 4 4 5 7 9 13 15 15 16 19 25 29 33 36 38 41 43 44 45 44 44 46 48 50 52 53 53 52 50 48 47 45 43 42 41 39 38 37 36 35 35 37 37 37 36 36 37 37 37 34 30 28 26 25 24 23 22 21 21 20 18 15 13 11 11 10 9 10 10 11 11 11 10 10 9 9 8 8 8 9 10 10 12
5 7 11 9 9 8 6 4 4 2 3 6 4 4 3 5 6 5 6 11 14 16 18 18 22 30 35 37 39 41 44 46 47 47 47 48 50 51 52 53 53 51 49 49 48 46 44 43 41 40 39 38 37 36 35 35 35 36 36 35 36 37 37 35 32 29 28 26 25 25 24 23 22 21 20 17 15 13 12 11 10 11 11 11 12 12 11 11 11 10 9 8 8 9 10 10 11
4 7 8 7 8 7 6 6 4 2 4 10 7 4 4 6 5 4 4 9 12 13 15 15 22 33 38 39 40 42 43 44 46 48 49 49 50 51 50 50 50 51 51 50 49 47 45 44 43 42 40 39 37 36 36 35 35 35 35 35 35 35 36 36 34 32 30 28 27 25 25 24 23 22 21 19 17 15 14 13 12 12 12 12 13 12 12 12 11 11 10 10 9 9 10 11 11
5 6 4 4 4 4 5 4 3 3 8 11 9 6 5 6 5 6 6 6 8 9 11 13 19 28 35 38 40 42 42 43 45 47 48 48 48 47 47 47 48 50 50 49 49 48 47 46 45 44 42 40 39 37 36 36 36 36 35 35 34 34 35 36 36 35 32 30 28 26 25 25 23 23 22 20 18 16 15 15 15 14 13 14 14 13 13 12 11 12 12 11 11 10 10 11 11
6 5 5 2 1 1 2 1 4 7 10 8 8 7 7 9 7 6 7 7 10 11 12 14 16 23 33 37 40 42 43 45 46 46 45 44 44 44 46 48 48 48 49 49 50 49 49 48 47 46 44 43 41 39 38 37 36 36 35 35 34 34 34 35 36 35 33 31 29 27 26 25 24 23 23 21 19 18 16 16 16 16 16 15 15 14 13 12 12 13 13 13 12 11 11 11 12
8 5 6 5 3 1 4 3 3 7 7 4 7 7 7 10 9 7 9 9 11 13 15 17 19 26 35 39 42 43 44 45 45 45 44 43 45 47 49 50 49 49 50 50 50 50 50 49 48 47 46 45 43 41 40 38 37 36 36 35 35 34 34 35 35 35 34 32 30 29 27 26 25 24 23 22 20 18 17 17 16 16 16 16 16 15 14 13 13 13 14 15 14 12 11 11 11
9 8 6 7 5 4 6 5 3 5 5 3 6 6 4 5 6 11 13 12 14 16 21 26 28 32 38 42 44 44 44 45 45 45 45 45 48 50 50 51 51 51 51 51 51 51 51 50 50 49 48 46 45 43 41 39 38 36 35 35 35 34 35 35 35 35 34 33 31 30 28 27 26 24 23 22 20 18 17 17 16 16 16 16 17 16 15 14 14 15 15 15 15 13 11 12 12
9 8 7 7 5 5 5 4 4 4 4 5 4 5 5 4 4 9 13 16 20 23 27 31 32 34 38 38 39 41 42 44 44 45 45 48 50 50 50 51 51 52 52 52 52 52 52 52 51 50 49 48 46 45 43 41 39 37 35 35 35 35 35 35 36 35 34 33 32 31 30 28 26 24 22 20 19 19 18 18 17 16 16 17 17 17 17 16 16 16 16 16 16 14 13 13 12
8 7 7 8 5 4 3 3 5 3 3 6 4 4 5 4 5 6 5 12 19 23 27 27 29 31 30 28 32 37 40 43 43 43 46 48 49 49 49 50 51 52 52 52 53 53 53 53 52 51 50 49 47 46 45 43 40 38 36 35 34 35 35 36 36 36 34 34 33 32 31 29 27 25 23 21 20 20 20 19 19 18 17 17 18 18 18 18 17 17 17 17 17 16 15 14 13
4 7 9 6 5 5 3 4 1 3 5 6 3 4 4 2 7 5 3 7 10 15 18 20 25 27 23 25 32 37 40 42 43 45 47 48 48 48 50 51 51 52 53 54 55 55 55 54 52 51 50 49 48 47 45 43 42 40 38 37 35 35 35 36 36 36 34 33 32 32 32 30 28 26 25 23 22 21 21 21 20 20 18 18 19 19 19 19 18 18 18 18 18 17 17 16 15
4 7 9 5 6 5 4 4 2 3 7 5 2 6 5 4 6 4 5 7 8 11 12 14 19 20 21 27 34 38 42 45 46 48 49 48 48 49 50 52 53 54 55 55 55 54 54 53 52 51 51 50 49 48 46 44 43 42 40 39 37 36 35 36 36 36 34 33 32 32 32 31 29 28 26 25 24 23 22 22 21 20 20 19 20 20 20 20 19 19 19 19 19 18 18 17 17
8 6 8 7 5 7 6 5 6 6 6 5 3 4 5 6 6 5 8 10 10 11 11 12 14 14 20 27 32 37 42 44 45 47 47 46 47 49 50 52 53 53 54 54 54 53 53 53 52 51 50 49 48 48 47 46 44 43 41 40 38 37 36 36 36 37 36 34 33 31 31 31 30 29 28 27 26 24 23 23 22 21 20 20 21 22 21 21 21 21 20 20 20 19 19 18 17
9 5 7 7 5 6 7 4 3 4 4 4 3 2 4 6 6 8 11 11 11 11 10 11 12 16 23 27 30 35 38 41 44 46 46 46 48 50 51 52 52 52 52 52 52 52 52 52 52 52 50 48 48 48 47 46 45 44 43 41 40 38 37 36 36 37 37 36 34 32 31 31 30 30 30 29 28 26 25 24 22 22 20 20 21 21 22 22 22 22 21 21 21 21 21 20 19
6 5 7 7 3 2 4 3 2 4 4 3 3 4 5 5 5 9 12 12 12 12 12 11 13 19 26 29 31 35 38 42 46 47 47 48 49 51 52 51 50 49 48 49 50 52 52 52 51 52 51 49 49 48 47 47 46 44 44 42 41 39 37 36 36 36 37 36 35 34 33 32 31 30 30 30 30 28 27 26 24 23 22 20 20 20 21 22 22 22 21 21 21 21 21 21 20
3 4 5 8 5 3 5 5 3 4 4 4 3 4 6 5 4 8 11 11 11 13 13 12 15 23 29 31 33 36 39 44 47 49 50 50 51 51 51 49 47 46 47 49 51 52 52 52 52 51 51 50 49 48 48 47 45 44 43 42 41 39 38 36 36 36 36 36 36 35 34 33 33 32 31 31 31 30 29 28 27 26 24 22 21 20 21 21 22 22 21 21 20 20 21 21 21
Wind_Direction
163 162 162 157 163 161 166 175 172 218 221 291 258 260 237 207 168 139 128 108 99 149 128 134 148 147 130 152 147 104 80 126 146 146 162 147 151 156 153 151 150 148 146 143 143 142 146 151 152 150 150 149 146 145 144 143 140 140 140 139 139 134 133 132 131 132 132 132 133 134 130 128 126 125 123 119 117 113 111 110 109 108 107 108 109 107 100 93 91 94 96 96 95 95 97 99 102
167 163 159 154 160 157 164 182 225 18 213 307 259 228 217 135 164 135 137 143 120 151 133 133 143 139 120 134 128 97 70 64 131 133 133 144 151 155 153 152 150 148 147 146 146 145 149 155 155 154 152 150 149 148 145 142 138 137 134 134 134 130 130 131 132 133 133 134 136 135 132 132 131 129 127 122 120 117 115 113 112 111 111 110 108 107 101 95 91 93 96 96 98 99 100 100 103
165 160 157 153 160 167 163 178 240 23 244 276 264 253 162 76 177 98 109 128 131 138 131 131 133 115 109 113 105 90 82 71 136 133 135 149 155 155 155 153 151 151 150 149 148 148 151 155 157 156 155 154 153 150 145 141 138 136 134 135 134 130 132 132 131 132 133 135 136 135 134 134 134 132 129 125 123 121 121 120 119 117 115 114 112 109 102 96 90 91 94 96 97 99 100 102 105
156 156 159 154 160 185 191 184 262 214 246 229 267 270 191 199 130 99 103 121 132 134 130 129 114 96 110 101 89 89 105 131 142 139 144 156 157 154 155 153 153 153 151 152 150 150 153 155 159 159 158 157 152 147 143 140 139 136 136 137 135 133 134 134 134 134 135 136 137 136 136 137 137 134 131 129 128 129 128 127 125 122 120 119 117 113 106 99 93 91 93 94 96 97 98 100 104
149 151 162 165 163 189 204 244 256 215 245 188 251 271 210 141 120 110 109 124 139 137 134 128 99 94 103 94 81 114 140 143 145 147 150 158 158 154 154 154 155 154 153 152 151 153 155 156 159 160 157 152 146 142 140 139 137 136 136 136 135 135 136 137 138 138 137 138 139 138 140 140 139 137 134 133 133 134 132 130 127 123 122 120 116 113 109 103 95 92 92 94 97 100 100 101 103
152 155 173 195 234 247 180 250 236 235 254 187 212 271 186 108 113 120 113 118 132 138 136 126 123 115 95 72 61 122 145 151 152 154 155 157 158 155 154 156 156 155 154 152 152 155 156 158 159 158 153 146 141 138 138 137 137 138 137 137 136 136 137 138 139 140 139 139 139 138 140 140 139 137 135 134 133 133 131 127 124 122 120 116 113 110 106 101 97 96 95 96 98 102 104 103 103
157 163 185 228 278 289 270 273 249 238 259 207 188 254 158 113 118 123 116 120 121 125 130 130 132 115 90 84 84 112 139 164 157 156 157 157 158 156 155 157 157 155 154 153 153 156 157 159 159 155 149 144 141 138 138 138 140 141 141 142 140 140 140 139 139 141 140 138 138 138 139 139 139 136 133 132 129 127 124 121 119 118 116 113 111 108 103 98 101 104 103 102 100 100 101 101 101
166 167 185 236 331 37 299 269 259 221 245 217 173 232 159 150 138 131 120 124 130 122 125 137 138 108 73 126 104 118 153 165 158 156 157 156 157 156 157 157 157 156 155 155 154 157 158 159 159 153 148 145 142 141 141 142 143 145 146 147 146 145 144 142 141 141 140 137 137 139 138 137 135 132 131 127 123 122 120 118 116 116 114 112 111 107 104 102 106 111 111 110 107 103 100 101 101
181 173 143 154 18 309 277 262 264 229 238 224 176 218 152 160 146 133 121 104 122 124 129 143 146 119 106 106 106 133 155 164 157 154 157 157 158 157 157 157 156 156 156 156 156 158 158 160 159 152 150 147 145 144 144 147 148 150 151 151 150 149 148 147 145 143 143 138 137 137 134 131 128 128 127 124 122 122 120 117 115 114 112 113 112 107 106 107 109 110 110 108 106 102 100 100 99
187 195 112 71 169 297 282 263 253 248 256 198 185 181 149 163 147 114 100 114 130 120 129 144 130 124 121 105 110 143 158 162 156 155 159 158 159 158 157 157 157 157 157 158 158 159 159 160 158 153 152 149 148 148 149 152 152 152 151 152 152 152 152 150 147 146 144 139 135 133 131 127 126 127 124 123 123 119 115 112 112 110 109 111 109 108 108 108 106 103 102 102 102 101 99 98 95
178 184 232 333 225 276 253 262 265 275 272 97 100 170 165 167 145 99 89 118 135 127 136 141 120 121 117 104 117 146 160 162 158 156 159 159 160 159 158 157 157 157 157 159 160 161 161 159 157 155 154 152 152 151 152 154 153 151 149 151 152 153 153 149 147 146 144 139 134 130 130 128 128 127 123 124 120 115 113 110 110 107 106 107 108 110 112 108 105 103 102 102 102 103 101 99 97
173 135 141 270 235 229 225 269 277 279 273 210 183 178 174 165 144 116 116 125 136 131 150 157 143 131 108 103 133 147 160 163 161 158 159 160 160 160 159 157 157 158 158 161 163 164 162 158 157 157 157 155 154 154 154 153 152 150 149 151 150 152 151 149 148 147 144 138 135 133 133 131 130 126 122 122 118 117 115 112 110 107 109 112 114 115 115 110 106 105 102 102 101 102 101 98 99
190 101 131 253 208 203 255 273 265 259 284 247 183 177 167 158 149 145 125 129 142 135 166 171 154 137 101 122 141 152 161 166 163 160 161 161 161 160 159 159 158 159 161 164 165 166 162 159 159 159 159 156 154 154 153 153 152 150 151 151 148 150 149 150 149 146 143 139 138 137 135 133 131 126 124 124 122 121 118 115 111 108 112 113 116 117 116 111 107 107 102 101 101 103 102 99 101
172 141 173 257 254 237 256 251 274 90 266 245 150 160 160 150 149 149 131 131 143 151 164 168 157 133 117 132 147 161 163 167 165 161 163 162 162 162 161 160 160 162 164 167 168 167 163 162 162 161 159 157 154 153 154 154 153 152 152 150 147 146 146 147 148 146 145 142 141 139 139 136 133 130 129 129 127 125 121 118 113 109 109 106 110 113 115 114 111 109 104 103 103 105 105 103 104
180 138 190 246 316 287 247 226 230 152 243 220 153 153 141 131 151 141 142 143 119 163 150 157 163 139 152 159 165 169 165 167 165 163 164 164 164 163 163 161 162 165 167 169 170 168 166 165 165 163 160 157 154 154 155 155 154 153 151 150 147 144 143 144 147 147 146 144 142 142 142 139 135 135 133 133 130 127 123 120 117 113 111 105 105 108 111 114 113 111 107 105 104 109 109 105 102
210 240 30 257 280 258 245 214 156 153 240 186 155 153 125 104 151 130 142 147 131 154 149 159 170 189 177 173 171 169 165 165 164 164 165 165 166 165 163 162 164 167 169 172 172 171 169 168 167 165 162 158 156 156 155 155 155 153 152 151 146 144 143 143 144 143 144 144 145 146 145 143 139 138 135 134 132 129 126 123 122 117 114 110 106 105 107 108 108 108 108 107 107 113 115 110 103
213 228 266 247 236 230 229 209 184 149 202 166 158 160 135 99 148 131 134 142 143 153 152 165 178 248 177 172 169 166 163 164 163 165 166 164 166 166 164 164 166 168 171 174 175 175 172 171 170 167 164 160 158 157 156 156 156 153 152 150 145 144 144 143 142 140 143 144 146 148 147 145 141 139 136 134 132 130 128 126 127 122 117 115 112 109 107 105 104 104 105 107 109 113 116 114 109
196 200 228 236 227 223 214 202 195 145 156 171 175 169 147 137 149 138 130 130 147 154 148 161 172 191 169 165 165 163 162 164 164 166 166 164 166 167 167 167 169 170 172 175 178 178 175 174 172 169 167 163 161 159 157 157 156 154 152 150 146 144 144 143 144 144 145 146 147 148 146 145 141 138 135 133 132 131 131 131 133 129 122 123 123 121 117 114 110 109 107 109 115 114 114 112 112
205 194 208 233 212 218 256 255 245 180 173 169 178 176 157 155 155 149 140 133 152 151 138 148 131 134 155 160 162 163 163 164 166 169 168 168 169 169 169 170 172 173 175 177 180 180 178 176 173 172 169 165 164 162 160 159 158 158 154 150 148 146 146 146 147 149 150 149 147 145 145 144 141 139 136 135 136 136 134 135 137 132 133 135 130 130 128 125 123 122 119 119 124 121 118 114 113
216 218 219 239 232 259 282 271 269 302 167 161 172 179 163 159 159 155 148 145 166 167 153 151 138 143 153 159 163 165 165 167 169 171 172 172 173 173 172 172 174 176 178 180 180 181 181 177 174 174 171 167 166 165 164 163 162 162 156 151 150 149 149 149 149 151 152 149 145 144 146 146 145 146 144 144 145 145 140 138 145 145 145 141 130 131 131 130 132 131 126 124 125 125 125 121 116
187 207 217 243 238 242 270 277 278 287 169 163 164 170 163 163 164 158 147 140 194 200 181 178 164 158 159 162 166 167 168 170 172 175 175 175 176 176 175 174 176 178 180 182 181 182 181 178 175 174 171 168 167 167 166 164 163 163 159 154 153 152 150 149 147 147 146 145 144 145 148 150 152 154 155 158 157 156 149 138 142 149 151 146 138 133 132 141 148 142 131 127 124 126 130 126 119
183 224 235 251 272 254 271 295 299 281 162 158 156 167 165 162 170 166 160 162 209 204 193 188 177 168 166 167 168 169 171 173 175 178 178 178 179 179 179 177 178 181 183 184 183 182 181 178 176 173 171 169 168 168 167 165 164 163 160 157 157 156 150 148 147 146 144 143 146 148 152 154 155 157 161 167 169 170 169 155 143 144 149 153 157 153 151 165 172 166 155 147 136 132 134 131 121
220 243 239 245 252 260 271 285 301 296 159 161 168 175 161 155 178 180 180 187 203 202 192 187 181 175 171 170 170 172 174 176 179 181 181 182 182 182 182 181 181 184 185 185 183 183 181 178 176 174 170 169 168 166 166 166 165 163 162 161 162 161 155 151 151 150 148 148 150 152 156 157 157 160 165 168 171 174 178 179 169 156 153 156 164 168 176 192 203 196 187 184 175 158 149 141 126
231 258 245 244 244 249 262 274 289 287 244 200 178 168 164 166 178 184 193 195 191 196 188 185 180 176 173 172 173 176 177 179 182 183 185 185 186 187 185 184 185 186 187 185 184 184 181 178 176 175 172 170 167 166 166 166 166 164 164 166 167 167 163 157 155 156 155 153 153 155 158 159 159 159 160 159 163 172 178 182 185 182 172 168 172 176 184 197 207 206 205 206 201 195 185 171 157
226 241 243 248 249 253 269 281 286 280 263 223 175 171 184 184 172 180 199 195 183 182 180 181 177 175 175 174 176 178 179 181 183 185 187 188 188 189 188 189 189 190 190 186 185 185 182 179 178 177 175 172 169 167 167 167 167 167 166 167 170 173 170 163 161 163 161 158 157 157 158 154 152 150 147 141 144 163 174 180 186 188 186 184 188 189 189 193 197 200 205 211 212 211 208 199 191
216 230 244 263 263 268 282 281 281 278 259 210 175 195 200 186 169 187 202 188 181 177 174 177 176 175 176 177 179 180 181 183 185 187 188 190 190 191 192 192 193 194 192 187 187 186 183 182 181 181 179 176 173 171 170 169 170 170 165 166 171 175 175 173 170 169 168 165 162 159 156 150 145 146 142 132 136 155 169 178 180 183 188 189 198 201 195 191 192 196 197 204 214 214 211 206 204
221 235 253 261 265 271 275 272 274 277 260 212 191 212 207 190 179 207 196 182 179 172 170 176 176 177 178 179 181 182 184 186 188 188 188 190 192 194 195 195 197 196 195 191 189 187 186 185 184 184 183 181 179 177 174 173 174 174 169 167 169 172 177 181 179 177 177 172 167 162 157 151 147 147 143 138 148 160 173 178 179 182 188 190 194 198 186 173 177 189 198 201 212 214 210 205 206
249 263 266 260 264 268 264 263 262 261 258 226 203 200 196 188 204 221 184 179 181 172 169 175 177 179 180 180 182 184 187 188 189 190 191 192 194 196 197 198 198 198 197 193 191 190 189 188 188 188 187 186 185 183 180 179 179 178 177 175 172 173 180 185 186 187 186 181 176 168 160 157 153 150 145 145 158 171 179 180 183 184 186 189 190 189 179 160 163 181 197 202 216 220 211 202 200
258 272 280 276 284 277 259 252 251 233 240 228 197 193 191 182 217 214 181 177 179 174 170 175 178 180 180 181 183 186 189 190 191 193 195 196 196 198 199 200 200 200 200 196 194 194 192 191 191 192 191 190 190 189 187 186 185 182 183 184 180 182 187 189 190 192 192 190 186 176 167 163 158 154 151 151 167 182 188 185 185 186 185 182 176 176 175 156 160 179 188 203 218 216 202 194 195
248 250 252 280 313 292 259 237 233 214 236 215 173 208 228 197 218 197 175 174 171 169 171 175 178 179 180 183 185 188 191 192 194 196 197 198 199 200 201 202 202 202 202 199 198 197 196 195 194 196 196 195 195 193 193 193 191 189 188 189 189 191 195 196 194 195 194 194 193 185 176 171 166 164 161 163 177 190 193 187 183 188 190 179 179 182 165 148 155 168 175 186 196 185 180 185 189
222 200 219 251 241 281 260 199 196 201 238 195 170 233 233 211 217 184 174 175 170 168 173 176 178 179 181 184 187 190 193 195 197 198 199 200 201 202 204 204 204 205 204 202 200 200 199 198 198 199 199 199 199 197 198 198 196 195 194 194 195 198 203 205 202 199 197 196 196 191 184 179 177 177 174 176 184 192 196 190 184 192 194 185 202 197 162 150 155 161 166 162 171 178 182 187 188
173 168 214 211 187 259 272 197 181 194 227 182 174 242 232 227 207 179 176 176 174 172 175 179 179 181 183 186 189 192 195 197 200 201 202 202 203 204 205 206 207 207 206 204 203 203 202 202 201 202 202 203 202 201 202 202 202 201 200 200 201 204 209 211 208 204 201 200 199 195 190 186 183 181 183 185 186 192 196 193 195 203 205 200 210 201 180 172 170 168 170 173 183 188 195 201 197
297 185 215 188 173 241 270 260 209 197 187 178 187 214 218 232 188 176 178 177 176 174 176 181 181 184 185 187 191 193 195 198 201 203 204 204 205 206 207 208 209 209 209 207 206 205 205 205 205 205 205 205 205 205 205 205 206 206 205 205 207 208 212 215 212 207 206 206 204 200 196 194 191 191 196 196 191 193 192 198 215 220 216 217 221 215 197 180 177 171 173 188 192 187 197 207 203
273 210 216 207 179 220 239 286 248 198 172 185 203 217 225 225 174 173 180 179 177 176 179 182 183 186 187 189 192 194 196 198 202 204 205 205 206 207 209 210 211 212 212 211 210 209 207 207 207 208 208 208 209 208 208 209 209 211 211 210 212 212 213 215 213 211 210 211 210 204 203 202 199 202 207 209 207 205 199 206 228 231 223 224 223 221 209 186 183 176 175 190 195 191 189 185 185
209 197 193 216 206 223 210 233 253 182 181 193 198 222 232 222 167 176 181 181 180 182 183 183 184 187 189 190 193 196 198 200 203 204 205 206 206 208 210 211 212 213 214 214 213 212 211 211 211 211 211 211 212 212 212 212 212 213 214 214 215 215 214 212 212 214 212 211 211 206 206 206 203 207 210 212 216 218 219 222 235 237 230 227 221 221 219 205 194 182 177 187 193 191 175 151 161
172 181 171 180 207 244 227 227 234 164 181 210 197 217 226 201 179 184 182 183 185 186 183 183 186 188 189 192 195 198 200 204 205 204 204 206 207 209 210 212 213 214 216 216 215 215 214 213 213 214 214 214 214 215 216 216 215 215 216 216 217 216 215 212 212 216 215 212 211 208 209 208 207 212 213 214 220 224 225 229 238 241 234 231 229 227 228 224 207 186 185 193 197 194 180 171 173
154 161 187 190 202 246 246 237 237 158 164 229 210 216 226 205 188 190 184 184 186 183 181 186 188 190 191 194 197 200 203 206 205 203 204 206 208 210 211 212 213 214 216 217 217 217 216 216 216 215 216 216 216 217 218 218 217 216 215 216 217 217 215 214 214 216 217 214 211 211 213 213 214 218 219 220 226 231 229 228 234 241 239 238 238 233 232 231 215 196 198 201 205 210 205 201 201
255 196 209 227 217 241 257 243 235 162 168 253 225 220 235 217 190 189 183 183 188 186 185 189 190 193 195 197 200 202 204 205 203 203 204 206 208 209 210 212 213 215 216 217 218 219 219 218 218 217 217 218 218 218 219 220 219 217 217 217 218 219 218 218 217 217 218 217 213 214 215 219 221 223 227 230 235 238 234 229 232 238 241 242 242 238 235 232 220 208 210 208 211 223 226 223 222
250 247 223 252 240 258 275 259 241 162 185 261 231 213 239 231 197 187 183 186 196 194 191 191 191 193 196 199 201 202 202 202 202 204 204 205 207 209 210 212 214 216 217 218 219 219 220 220 220 219 219 219 220 220 221 222 222 221 220 220 220 221 222 223 222 220 220 219 217 217 218 222 226 228 232 237 240 239 235 231 231 235 240 243 245 243 244 243 232 218 215 215 217 227 232 231 232
229 230 224 237 231 211 253 270 298 190 212 235 214 210 248 238 200 194 194 194 198 199 198 196 193 193 197 201 201 199 199 201 202 203 204 205 206 208 210 212 213 215 216 218 218 218 220 220 220 220 220 220 222 222 223 223 224 225 224 224 224 223 223 225 224 223 221 221 221 221 221 223 227 230 232 236 240 240 237 234 231 233 238 243 246 247 251 258 251 232 225 226 227 231 232 230 233
220 221 224 221 214 211 235 298 338 332 286 231 171 249 284 231 192 209 205 200 202 202 201 201 200 200 202 203 202 200 200 201 202 203 204 204 206 208 210 212 212 214 216 217 217 217 217 219 219 219 220 221 222 224 225 225 225 226 225 225 225 224 223 224 224 223 222 223 222 221 222 224 227 229 227 231 238 241 239 236 234 234 237 243 249 251 255 259 254 240 231 232 232 232 233 229 230
230 223 220 208 200 214 244 321 353 360 315 273 162 227 282 263 207 210 201 200 208 203 200 204 206 205 204 203 203 204 203 203 204 204 204 205 206 207 209 211 212 214 216 216 216 216 216 217 218 219 220 221 223 224 225 225 226 226 225 223 223 222 222 224 225 224 224 225 224 223 224 226 228 227 224 224 231 239 238 237 237 237 239 244 249 252 255 255 251 242 232 232 232 230 232 229 228
239 217 200 193 180 179 190 265 286 223 261 267 157 191 261 306 249 218 192 194 204 201 200 207 207 205 202 203 204 204 205 204 205 206 205 205 206 207 208 211 213 214 216 216 216 217 216 217 217 218 220 222 223 223 224 225 226 227 226 225 225 224 224 225 227 227 227 228 229 228 228 229 229 227 225 223 224 231 234 235 239 241 241 242 246 249 251 254 252 245 236 230 229 227 229 230 230
234 174 152 172 180 182 185 184 219 231 272 269 194 156 235 288 261 230 192 196 206 201 204 209 207 205 204 206 207 205 205 205 204 205 205 205 206 207 209 211 213 214 215 215 216 217 217 218 219 219 220 222 223 223 223 224 225 227 226 226 226 227 227 228 228 228 228 230 231 232 232 233 232 229 226 224 222 225 229 233 239 244 244 242 243 246 247 250 249 247 242 234 232 230 230 231 231
229 151 146 169 186 195 191 191 229 253 314 272 231 153 225 269 265 256 193 199 214 206 207 209 203 205 207 208 209 208 208 207 206 205 206 207 207 209 211 212 213 214 214 215 216 217 218 219 220 220 221 222 223 223 223 223 224 226 227 227 227 227 228 229 230 230 230 231 232 233 235 235 234 230 227 225 222 224 227 232 238 243 245 243 244 246 245 245 245 247 247 241 239 238 236 236 234
211 154 153 158 175 190 187 190 212 228 258 253 238 168 212 267 258 243 207 204 217 212 211 212 205 206 208 208 209 209 209 209 209 208 208 209 209 210 211 212 212 213 214 216 216 217 218 219 220 221 222 223 224 224 225 225 225 226 227 229 228 227 227 229 230 231 232 233 234 235 236 236 234 230 227 226 224 225 227 230 235 239 243 245 246 246 244 244 246 247 249 247 244 242 241 243 241
162 139 146 141 166 170 175 178 152 209 248 244 231 182 192 259 236 203 216 205 198 207 216 217 210 210 210 210 209 209 209 209 210 211 210 211 211 210 210 212 212 213 214 214 215 217 218 219 219 221 222 223 224 225 226 226 226 227 228 229 229 228 227 228 229 230 231 233 234 235 235 236 235 232 229 228 227 227 228 229 232 236 240 245 246 247 245 246 249 249 250 249 247 245 244 245 246
170 149 147 146 266 124 160 155 140 212 243 236 217 184 188 240 237 200 216 211 192 201 215 213 209 211 212 212 211 210 209 210 210 211 210 209 209 209 210 212 213 212 212 213 214 215 217 219 220 221 222 222 224 226 226 227 228 228 228 229 230 230 230 229 229 230 231 232 232 234 235 235 235 234 231 230 229 227 227 228 230 232 236 242 246 248 248 247 250 250 250 250 248 247 244 245 247
191 170 152 174 218 169 191 207 189 223 244 221 185 172 198 240 246 219 215 218 208 206 214 213 208 209 210 210 211 210 210 210 210 210 209 208 208 210 210 211 212 212 212 212 213 214 216 218 219 220 222 222 223 225 226 227 228 228 228 228 230 231 232 232 232 232 233 233 233 234 235 235 234 233 231 230 229 226 226 227 228 231 235 242 246 248 249 248 249 251 252 253 252 249 246 247 249
195 184 173 184 185 184 205 214 227 241 251 223 160 160 219 253 248 222 208 215 221 216 219 220 216 212 211 210 209 208 209 210 210 209 208 208 210 211 210 210 211 212 212 212 213 214 215 217 219 220 222 223 223 225 226 227 227 227 228 228 230 231 232 234 234 234 234 234 234 235 236 236 235 234 233 232 232 230 229 229 230 234 238 242 245 247 249 248 249 251 252 254 254 252 250 250 252
198 190 185 197 189 185 191 190 214 232 254 243 170 167 207 191 220 221 200 205 216 220 226 226 225 220 215 212 207 206 208 209 210 210 209 210 211 212 211 211 212 212 212 212 212 213 214 216 218 220 222 222 223 224 225 226 226 226 227 228 231 232 233 235 236 235 235 234 235 235 237 238 237 237 237 237 237 236 236 236 236 238 240 243 244 245 247 247 248 250 253 255 255 254 252 253 255
198 179 193 213 189 151 165 198 199 173 239 246 204 204 221 202 256 266 200 199 206 217 227 227 229 226 216 207 204 204 208 209 210 209 210 212 212 212 211 211 212 212 212 212 213 213 214 216 218 220 222 222 223 224 225 226 227 226 227 228 230 232 234 236 237 237 236 235 235 235 237 239 239 240 240 240 240 240 242 243 243 244 244 244 243 243 245 246 248 249 252 256 257 256 256 257 259
179 175 201 203 140 140 203 238 204 123 218 239 201 226 259 268 272 275 185 193 202 214 224 224 227 223 204 197 201 203 206 208 209 210 212 212 211 212 212 212 213 212 212 213 213 214 214 216 217 219 221 222 223 225 226 227 227 227 227 228 230 232 234 236 237 237 236 235 235 236 237 239 240 241 241 241 242 243 244 246 248 250 249 246 243 242 243 245 247 248 250 254 256 258 258 259 261
146 188 192 140 118 173 204 227 235 192 227 259 215 214 212 198 249 248 167 192 214 218 221 224 227 215 194 197 201 202 204 207 210 212 213 212 211 212 212 213 214 214 214 214 214 214 214 216 218 219 220 221 223 225 226 227 228 227 228 228 229 232 234 235 236 237 237 236 236 236 237 237 238 239 240 241 243 243 245 246 248 250 250 247 243 241 242 244 246 248 250 252 255 257 258 259 260
185 183 164 142 162 199 190 198 216 210 234 282 280 227 207 201 227 210 185 199 214 219 221 224 226 208 197 202 202 201 203 205 208 211 212 211 211 213 213 214 215 214 215 214 214 213 214 215 218 220 222 224 225 225 226 227 228 228 228 229 230 231 233 235 236 237 237 237 237 237 237 237 237 238 239 240 241 241 243 245 245 246 246 245 242 241 241 242 244 248 250 252 253 255 258 259 260
196 162 155 171 193 196 188 187 188 192 224 258 265 256 234 228 210 183 193 201 200 207 215 221 222 211 205 204 202 201 201 202 206 210 211 211 212 214 214 214 215 214 214 213 212 212 214 215 216 219 221 223 224 225 226 226 227 228 229 229 230 231 233 234 235 236 237 237 238 238 238 238 238 238 239 239 240 240 241 242 242 242 242 242 241 241 241 241 242 246 249 252 254 255 257 260 261
201 187 175 190 206 182 192 209 177 179 196 221 247 261 256 251 204 182 196 202 196 197 203 213 219 214 211 208 203 201 201 203 206 208 210 212 214 215 215 215 214 213 212 211 211 212 214 214 215 217 219 221 223 224 225 226 227 227 229 230 230 231 232 234 235 236 237 238 239 240 240 241 241 241 240 240 240 240 240 241 241 240 240 240 241 242 243 243 243 245 248 251 254 255 257 259 261
245 228 195 196 194 140 182 226 223 193 198 191 212 259 261 253 207 188 198 201 199 197 197 208 216 211 212 213 208 204 203 205 207 209 210 212 214 214 214 212 210 210 210 211 212 212 212 214 215 216 218 220 222 224 225 226 227 228 229 230 231 232 232 234 235 236 237 238 240 241 242 243 244 242 242 241 241 241 241 241 241 240 239 240 241 243 244 244 244 245 247 250 253 256 258 260 261